Hourly Data Report for September 29, 2017

All times are specified in Local Standard Time (LST). Add 1 hour to adjust for Daylight Saving Time where and when it is observed.

MIRAMICHI RCS
NEW BRUNSWICK

47°00'34.000" N
65°27'54.000" W
33.00 m
8100989
71744
ACQ

Download Data

Hourly Data (September 2017)
Hourly Data Report for September 29, 2017
Temp Definition
°C
Dew Point Temp Definition
°C
Rel Hum Definition
%
Wind Dir Definition
10's deg

Wind Spd Definition
km/h
Visibility Definition
km
Stn Press Definition
kPa
Hmdx Definition


Wind Chill Definition


Weather Definition


TIME
00:00 9.2 4.4 72 28 13   100.12     LegendNANA
01:00 8.3 4.2 75 28 11   100.18     LegendNANA
02:00 7.6 3.7 77 26 9   100.21     LegendNANA
03:00 7.8 3.1 72 28 12   100.21     LegendNANA
04:00 7.9 2.7 70 29 16   100.24     LegendNANA
05:00 7.5 2.2 69 29 13   100.29     LegendNANA
06:00 7.0 2.2 72 29 12   100.35     LegendNANA
07:00 7.3 2.2 70 29 11   100.44     LegendNANA
08:00 8.4 2.0 64 31 15   100.51     LegendNANA
09:00 9.5 1.9 59 32 17   100.59     LegendNANA
10:00 10.0 1.8 57 32 14   100.63     LegendNANA
11:00 10.8 2.2 55 34 12   100.67     LegendNANA
12:00 10.8 3.2 59 34 8   100.76     LegendNANA
13:00 10.7 3.9 63 1 11   100.77     LegendNANA
14:00 11.5 3.3 57 36 12   100.81     LegendNANA
15:00 12.0 3.3 55 32 10   100.87     LegendNANA
16:00 10.7 4.5 65 34 7   100.93     LegendNANA
17:00 10.7 2.6 57 33 11   101.02     LegendNANA
18:00 10.0 2.7 61 35 9   101.11     LegendNANA
19:00 9.0 2.8 65 36 8   101.19     LegendNANA
20:00 7.9 2.7 69 34 7   101.29     LegendNANA
21:00 7.6 3.3 74 35 6   101.38     LegendNANA
22:00 6.9 3.4 79 32 3   101.42     LegendNANA
23:00 5.9 3.2 83 33 4   101.47     LegendNANA

Notes on Data Quality.

Legend

  • E = Estimated
  • M = Missing
  • NA = Not Available
  • ‡ = Partner data that is not subject to review by the National Climate Archives
Date modified: